Location: Endfield
(51.6667°N, 0.0667°W)
Time: 15:03:41
(UTC+00:00)

Cosmos 1515 Rocket - Pass Details

Date: 19 May 2024
Orbit: 602 x 626 km, 82.5° (Epoch: 16 June)

Event Time Altitude Azimuth Distance (km) Brightness Sun altitude
Exits shadow 23:31:41 36° 147° (SSE) 973 4.1 -18.1°
Maximum altitude 23:33:04 51° 95° (E) 769 3.9 -18.1°
Drops below altitude 10° 23:37:17 10° 19° (NNE) 1,967 7.1 -18.2°
Sets 23:39:32 0° 15° (NNE) 2,873 8.3 -18.2°
